This is the latest recevied weather packets stored in our database for station/object FRA001-13. If no packets are shown the sender has not sent any weather packets the latest 1 day(s).
| Time | Temp. | Humidity | Pressure | Rain* | Wind** | Luminosity | Snow |
|---|---|---|---|---|---|---|---|
| 1778140803 | 12.22° C | 89% | 1013.6 hPa | 0 mm | - | 425 W/m² | - |
| 1778140504 | 11.11° C | 93% | 1013.7 hPa | 0 mm | - | 434 W/m² | - |
| 1778140203 | 10.56° C | 95% | 1013.7 hPa | 0 mm | - | 392 W/m² | - |
| 1778139903 | 10.56° C | 100% | 1013.5 hPa | 0 mm | - | 105 W/m² | - |
| 1778139604 | 10° C | 100% | 1013.6 hPa | 0 mm | - | 387 W/m² | - |
| 1778139304 | 9.44° C | 100% | 1013.5 hPa | 0 mm | - | 358 W/m² | - |
| 1778139004 | 8.89° C | 100% | 1013.5 hPa | 0 mm | - | 120 W/m² | - |
| 1778138703 | 8.89° C | 100% | 1013.6 hPa | 0 mm | - | 359 W/m² | - |
| 1778138404 | 8.33° C | 100% | 1013.5 hPa | 0 mm | - | 236 W/m² | - |
| 1778138103 | 7.78° C | 100% | 1013.5 hPa | 0 mm | - | 205 W/m² | - |
| 1778137803 | 8.33° C | 100% | 1013.5 hPa | 0 mm | - | 248 W/m² | - |
| 1778137503 | 7.78° C | 100% | 1013.7 hPa | 0 mm | - | 190 W/m² | - |
| 1778137203 | 7.22° C | 100% | 1013.7 hPa | 0 mm | - | 145 W/m² | - |
| 1778136903 | 7.22° C | 100% | 1013.6 hPa | 0 mm | - | 151 W/m² | - |
| 1778136603 | 7.22° C | 100% | 1013.7 hPa | 0 mm | - | 157 W/m² | - |
| 1778136303 | 6.67° C | 100% | 1013.7 hPa | 0 mm | - | 143 W/m² | - |
| 1778136003 | 6.67° C | 100% | 1013.7 hPa | 0 mm | - | 140 W/m² | - |
| 1778135704 | 6.67° C | 100% | 1013.8 hPa | 0 mm | - | 133 W/m² | - |
| 1778135403 | 6.11° C | 100% | 1013.5 hPa | 0 mm | - | 121 W/m² | - |
| 1778135104 | 6.11° C | 100% | 1013.6 hPa | 0 mm | - | 102 W/m² | - |
| 1778134803 | 6.11° C | 100% | 1013.8 hPa | 0 mm | - | 101 W/m² | - |
| 1778134503 | 6.11° C | 100% | 1013.8 hPa | 0 mm | - | 97 W/m² | - |
| 1778134204 | 5.56° C | 100% | 1013.7 hPa | 0 mm | - | 85 W/m² | - |
| 1778133904 | 5.56° C | 100% | 1013.8 hPa | 0 mm | - | 78 W/m² | - |
| 1778133604 | 5.56° C | 100% | 1013.7 hPa | 0 mm | - | 59 W/m² | - |
* Rain latest hour (hover to see other rain measurements)
** Current wind speed in m/s (hover to see current wind gust speed)